Find NNS 30270-07

NORAD ID: 18361 Int'l Des: 1987-080 Owner: NAVAIR Country: US operational
LEORETROGRADE

リアルタイム位置

3D地球を読み込み中...

NNS 30270-07について

説明を読み込み中...

次回通過

Passes for default location (London). Set your location on the main map for personalized predictions.

高度履歴

Loading altitude history...

軌道要素

1 18361U 87080A 26105.86397308 .00000047 00000-0 65526-4 0 9999
2 18361 90.3672 83.8407 0102165 228.3762 130.8602 13.44930717892258
Epoch: Apr 15, 2026 • Age: 5 hours

現在のステータス

高度 1091.8 km
速度 7.32 km/s
衛星直下点 -58.54°S, 146.8°W
打ち上げ日 Sep 16, 1987
運用期間 38.5 years
タイプ other

技術仕様

分類 Payload
質量 66.00 kg
乾燥質量 66.00 kg
総質量 66.00 kg
長さ 0.30 m
直径 0.50 m
スパン 30.00 m
形状 Oct Cyl + 4 Pan + Ant
製造者 GEEW
バスタイプ Transit 5
フェーズステータス In Orbit
所有者/国 NAVAIR/US

Most Searched